GW6786 Weather Reports


Display with metric or nautical units.
time (UTC)temp
F
wind
direction
speed
MPH
gust
MPH
rain 1hr
in
rain 24hr
in
rain mn
in
humidity
%
barometer
mb
20260504110105 56 193 2.0 5.0 0.03 0.25 0.25 94 1017.3
20260504100604 57 326 3.0 12.0 0.00 0.22 0.22 91 1016.3
20260504090105 57 305 4.0 7.0 0.00 0.22 0.22 92 1016.2
20260504081605 57 309 3.0 9.0 0.00 0.22 0.22 91 1016.0
20260504081104 57 312 4.0 9.0 0.00 0.22 0.22 91 1016.0
20260504080604 57 298 5.0 10.0 0.00 0.22 0.22 92 1016.0
20260504080104 57 323 6.0 10.0 0.00 0.22 0.22 91 1016.0
20260504070104 57 331 3.0 12.0 0.00 0.22 0.22 91 1015.7
20260504060104 58 303 5.0 10.0 0.00 0.22 0.22 91 1015.7
20260504050604 58 309 4.0 10.0 0.00 0.22 0.22 91 1015.8
20260504045604 58 295 5.0 20.0 0.00 0.22 0.22 90 1015.9
20260504044604 58 259 5.0 13.0 0.00 0.22 0.22 91 1015.8
20260504043604 58 321 6.0 13.0 0.00 0.22 0.22 90 1015.8
20260504043104 58 319 3.0 12.0 0.00 0.22 0.22 90 1015.9
20260504040604 58 275 6.0 12.0 0.00 0.22 0.22 91 1015.8
20260504040104 58 321 6.0 12.0 0.00 0.22 0.22 92 1015.8
20260504035604 57 258 5.0 10.0 0.00 0.22 0.22 92 1015.9
20260504035105 57 288 7.0 10.0 0.00 0.22 0.22 92 1015.8
20260504034104 57 270 5.0 15.0 0.00 0.22 0.22 92 1015.9
20260504033604 57 257 7.0 15.0 0.00 0.22 0.22 92 1015.9
20260504032604 57 314 5.0 10.0 0.00 0.22 0.22 92 1016.2
20260504032104 57 276 4.0 13.0 0.00 0.22 0.22 92 1016.1
20260504031604 57 312 3.0 13.0 0.00 0.22 0.22 92 1016.2
20260504031104 57 322 6.0 13.0 0.00 0.22 0.22 93 1016.4
20260504030604 57 297 9.0 13.0 0.00 0.22 0.22 93 1016.5
20260504030104 57 244 6.0 13.0 0.00 0.22 0.22 93 1016.4
20260504025604 57 294 4.0 15.0 0.01 0.22 0.22 94 1016.5
20260504025104 58 330 7.0 15.0 0.02 0.22 0.22 94 1016.6
20260504024104 57 247 5.0 16.0 0.03 0.22 0.22 96 1016.6
20260504023604 56 314 5.0 16.0 0.03 0.22 0.22 96 1016.6
20260504023104 56 253 7.0 16.0 0.03 0.22 0.22 96 1016.6
20260504022104 55 279 7.0 13.0 0.03 0.22 0.22 95 1016.7
20260504021604 55 262 6.0 13.0 0.03 0.22 0.22 96 1016.9
20260504021104 55 264 7.0 13.0 0.03 0.22 0.22 95 1017.0
20260504020604 55 302 3.0 13.0 0.03 0.22 0.22 95 1017.1
20260504020104 55 266 6.0 12.0 0.03 0.22 0.22 95 1017.4
20260504015604 55 252 4.0 12.0 0.02 0.21 0.21 95 1017.5
20260504015104 55 279 6.0 13.0 0.02 0.20 0.20 94 1017.6
20260504014104 55 257 8.0 15.0 0.00 0.19 0.19 94 1017.7
20260504013603 55 260 7.0 15.0 0.00 0.19 0.19 94 1017.8
20260504013104 55 269 6.0 13.0 0.00 0.19 0.19 94 1017.7
20260504012604 55 243 7.0 15.0 0.00 0.19 0.19 94 1017.9
20260504012103 55 296 5.0 15.0 0.00 0.19 0.19 94 1018.0
20260504011603 55 264 9.0 18.0 0.00 0.19 0.19 94 1018.0
20260504011104 55 269 5.0 18.0 0.00 0.19 0.19 94 1018.2
20260504010604 55 267 10.0 22.0 0.00 0.19 0.19 94 1018.1
20260504010105 55 232 6.0 22.0 0.00 0.19 0.19 94 1018.2
20260504005104 55 253 7.0 20.0 0.00 0.19 0.19 95 1018.2
20260504004604 55 277 6.0 20.0 0.01 0.19 0.19 95 1018.2
20260504004105 55 253 7.0 18.0 0.01 0.19 0.19 95 1018.2
20260504003604 55 253 7.0 18.0 0.01 0.19 0.19 95 1018.1
20260504003105 55 270 7.0 18.0 0.02 0.19 0.19 95 1018.1
20260504002604 55 260 7.0 18.0 0.02 0.19 0.19 95 1018.1
20260504001604 54 276 12.0 17.0 0.04 0.19 0.19 95 1018.1
20260504000604 54 269 7.0 17.0 0.05 0.19 0.19 95 1018.1
20260504000104 54 292 5.0 15.0 0.07 0.19 0.19 95 1018.1
20260503235104 54 264 7.0 17.0 0.11 0.19 0.19 95 1018.0
20260503234104 53 259 7.0 17.0 0.13 0.18 0.18 95 1018.1
20260503233605 53 256 9.0 17.0 0.15 0.18 0.18 94 1018.1
20260503233105 53 283 6.0 15.0 0.14 0.17 0.17 94 1018.1
20260503232104 53 273 5.0 17.0 0.14 0.16 0.16 94 1018.2
20260503231604 53 286 9.0 17.0 0.13 0.15 0.15 94 1018.2
20260503231105 53 265 6.0 10.0 0.13 0.14 0.14 94 1018.2
20260503230604 53 263 5.0 15.0 0.14 0.14 0.14 94 1018.2
20260503230104 53 248 6.0 15.0 0.12 0.12 0.12 93 1018.1
20260503225604 53 255 6.0 15.0 0.10 0.10 0.10 93 1018.2
20260503225104 53 288 6.0 15.0 0.08 0.08 0.08 93 1018.1
20260503224605 53 274 6.0 10.0 0.06 0.06 0.06 93 1018.1
20260503224104 53 289 4.0 12.0 0.05 0.05 0.05 92 1018.0
20260503223604 53 264 5.0 16.0 0.03 0.03 0.03 92 1018.1
20260503223104 53 262 6.0 16.0 0.02 0.02 0.02 92 1018.1
20260503222104 53 261 8.0 16.0 0.02 0.02 0.02 91 1018.1
20260503221605 54 270 11.0 16.0 0.02 0.02 0.02 90 1018.0
20260503220604 54 260 6.0 13.0 0.00 0.00 0.00 88 1018.1
20260503215605 54 248 6.0 13.0 0.00 0.00 0.00 88 1018.1
20260503215104 54 235 5.0 15.0 0.00 0.00 0.00 88 1018.2
20260503214605 55 259 10.0 15.0 0.00 0.00 0.00 86 1018.2
20260503214104 55 242 7.0 15.0 0.00 0.00 0.00 85 1018.0
20260503213604 56 241 6.0 12.0 0.00 0.00 0.00 83 1018.1
20260503212605 56 261 6.0 10.0 0.00 0.00 0.00 81 1018.0
20260503212104 56 259 6.0 10.0 0.00 0.00 0.00 81 1018.0
20260503211604 56 256 6.0 13.0 0.00 0.00 0.00 80 1017.9
20260503211104 56 247 7.0 13.0 0.00 0.00 0.00 80 1018.0
20260503210605 56 254 7.0 13.0 0.00 0.00 0.00 80 1018.0
20260503210105 56 260 6.0 12.0 0.00 0.00 0.00 80 1017.8
20260503205604 56 249 8.0 10.0 0.00 0.00 0.00 80 1017.8
20260503205104 56 254 5.0 8.0 0.00 0.00 0.00 79 1017.7
20260503204604 56 263 5.0 10.0 0.00 0.00 0.00 79 1017.7
20260503204104 56 258 7.0 10.0 0.00 0.00 0.00 79 1017.6
20260503203604 56 252 6.0 8.0 0.00 0.00 0.00 79 1017.6
20260503203104 56 267 5.0 8.0 0.00 0.00 0.00 79 1017.6
20260503202604 56 266 5.0 8.0 0.00 0.00 0.00 79 1017.6
20260503202104 56 256 5.0 8.0 0.00 0.00 0.00 80 1017.6
20260503201605 56 267 5.0 9.0 0.00 0.00 0.00 80 1017.5
20260503200605 56 256 5.0 9.0 0.00 0.00 0.00 80 1017.5
20260503200105 56 264 3.0 9.0 0.00 0.00 0.00 80 1017.5
20260503195604 56 265 4.0 10.0 0.00 0.00 0.00 79 1017.4
20260503195104 56 245 6.0 10.0 0.00 0.00 0.00 80 1017.5
20260503194604 56 261 4.0 9.0 0.00 0.00 0.00 80 1017.5
20260503194104 56 245 3.0 9.0 0.00 0.00 0.00 80 1017.6
20260503193604 56 258 6.0 9.0 0.00 0.00 0.00 80 1017.5
20260503193104 56 252 5.0 8.0 0.00 0.00 0.00 80 1017.4
20260503192604 56 248 4.0 9.0 0.00 0.00 0.00 80 1017.4
20260503192104 56 256 5.0 9.0 0.00 0.00 0.00 80 1017.3
20260503191604 57 252 3.0 10.0 0.00 0.00 0.00 80 1017.4
20260503191104 57 246 5.0 10.0 0.00 0.00 0.00 79 1017.4
20260503184604 57 258 5.0 8.0 0.00 0.00 0.00 77 1017.5
20260503184104 58 257 4.0 8.0 0.00 0.00 0.00 77 1017.5
20260503183604 58 254 5.0 8.0 0.00 0.00 0.00 76 1017.5
20260503183104 58 254 6.0 8.0 0.00 0.00 0.00 76 1017.6
20260503182604 58 263 5.0 8.0 0.00 0.00 0.00 75 1017.5
20260503182104 59 240 4.0 8.0 0.00 0.00 0.00 74 1017.5
20260503181604 59 252 4.0 7.0 0.00 0.00 0.00 73 1017.4
20260503181104 59 269 3.0 7.0 0.00 0.00 0.00 73 1017.4
20260503180605 59 259 2.0 7.0 0.00 0.00 0.00 73 1017.3
20260503180105 59 280 2.0 7.0 0.00 0.00 0.00 73 1017.3
20260503175604 59 269 3.0 7.0 0.00 0.00 0.00 73 1017.3
20260503175104 59 294 2.0 9.0 0.00 0.00 0.00 73 1017.3
20260503174104 59 316 3.0 9.0 0.00 0.00 0.00 73 1017.4
20260503173104 59 313 2.0 6.0 0.00 0.00 0.00 73 1017.3
20260503172604 59 292 3.0 6.0 0.00 0.00 0.00 73 1017.4
20260503172104 59 250 2.0 5.0 0.00 0.00 0.00 73 1017.4
20260503171604 60 250 2.0 8.0 0.00 0.00 0.00 72 1017.4
20260503170604 60 296 3.0 9.0 0.00 0.00 0.00 71 1017.4
20260503170104 60 297 4.0 9.0 0.00 0.00 0.00 71 1017.5
20260503160104 59 309 6.0 12.0 0.00 0.00 0.00 74 1018.1
20260503150604 59 310 6.0 13.0 0.00 0.00 0.00 75 1018.5
20260503150104 59 306 7.0 15.0 0.00 0.00 0.00 75 1018.5
20260503131104 57 285 5.0 8.0 0.00 0.00 0.00 78 1019.2
20260503130604 57 303 5.0 8.0 0.00 0.00 0.00 78 1019.3
20260503130104 57 325 5.0 8.0 0.00 0.00 0.00 80 1019.3